| time (UTC) | temp C | wind direction | speed KPH | gust KPH | rain 1hr cm | rain 24hr cm | rain mn cm | humidity % | barometer mb |
| 20260504045519 | 5 | 238 | 0.0 | 0.0 | 0.00 | 0.00 | 0.00 | 85 | 1013.5 |
| 20260504045018 | 5 | 238 | 0.0 | 0.0 | 0.00 | 0.00 | 0.00 | 85 | 1013.5 |
| 20260504044517 | 5 | 245 | 0.0 | 0.0 | 0.00 | 0.00 | 0.00 | 85 | 1013.5 |
| 20260504044018 | 5 | 245 | 0.0 | 0.0 | 0.00 | 0.00 | 0.00 | 84 | 1013.5 |
| 20260504043518 | 5 | 245 | 0.0 | 0.0 | 0.00 | 0.00 | 0.00 | 85 | 1013.5 |
| 20260504043018 | 5 | 290 | 0.0 | 0.0 | 0.00 | 0.00 | 0.00 | 84 | 1013.5 |
| 20260504042517 | 5 | 331 | 0.0 | 0.0 | 0.00 | 0.00 | 0.00 | 84 | 1013.4 |
| 20260504042015 | 5 | 6 | 0.0 | 0.0 | 0.00 | 0.00 | 0.00 | 83 | 1013.3 |
| 20260504041513 | 5 | 4 | 0.0 | 0.0 | 0.00 | 0.00 | 0.00 | 84 | 1013.3 |
| 20260504040515 | 5 | 327 | 0.0 | 0.0 | 0.00 | 0.00 | 0.00 | 84 | 1013.3 |
| 20260504040011 | 5 | 327 | 0.0 | 0.0 | 0.00 | 0.00 | 0.00 | 83 | 1013.3 |
| 20260504035511 | 5 | 326 | 0.0 | 0.0 | 0.00 | 0.00 | 0.00 | 83 | 1013.3 |
| 20260504035008 | 5 | 326 | 0.0 | 0.0 | 0.00 | 0.00 | 0.00 | 82 | 1013.4 |
| 20260504034509 | 5 | 326 | 0.0 | 0.0 | 0.00 | 0.00 | 0.00 | 82 | 1013.3 |
| 20260504034004 | 5 | 326 | 0.0 | 0.0 | 0.00 | 0.00 | 0.00 | 81 | 1013.4 |
| 20260504033501 | 5 | 326 | 0.0 | 0.0 | 0.00 | 0.00 | 0.00 | 80 | 1013.2 |
| 20260504033003 | 5 | 326 | 0.0 | 0.0 | 0.00 | 0.00 | 0.00 | 79 | 1013.3 |
| 20260504032501 | 5 | 326 | 0.0 | 0.0 | 0.00 | 0.00 | 0.00 | 79 | 1013.2 |
| 20260504032000 | 6 | 326 | 0.0 | 0.0 | 0.00 | 0.00 | 0.00 | 79 | 1013.3 |
| 20260504031501 | 6 | 326 | 0.0 | 0.0 | 0.00 | 0.00 | 0.00 | 78 | 1013.3 |
| 20260504031002 | 6 | 326 | 0.0 | 0.0 | 0.00 | 0.00 | 0.00 | 78 | 1013.5 |
| 20260504030501 | 6 | 326 | 0.0 | 0.0 | 0.00 | 0.00 | 0.00 | 78 | 1013.3 |
| 20260504030001 | 6 | 326 | 0.0 | 0.0 | 0.00 | 0.00 | 0.00 | 76 | 1013.4 |
| 20260504025501 | 6 | 326 | 0.0 | 0.0 | 0.00 | 0.00 | 0.00 | 77 | 1013.5 |
| 20260504025000 | 6 | 326 | 0.0 | 0.0 | 0.00 | 0.00 | 0.00 | 77 | 1013.5 |
| 20260504023459 | 6 | 326 | 0.0 | 0.0 | 0.00 | 0.00 | 0.00 | 74 | 1013.6 |
| 20260504023000 | 7 | 326 | 0.0 | 0.0 | 0.00 | 0.00 | 0.00 | 74 | 1013.6 |
| 20260504022457 | 7 | 326 | 0.0 | 0.0 | 0.00 | 0.00 | 0.00 | 74 | 1013.6 |
| 20260504021955 | 7 | 326 | 0.0 | 0.0 | 0.00 | 0.00 | 0.00 | 71 | 1013.7 |
| 20260504020955 | 7 | 326 | 0.0 | 0.0 | 0.00 | 0.00 | 0.00 | 71 | 1013.7 |
| 20260504020454 | 7 | 326 | 0.0 | 0.0 | 0.00 | 0.00 | 0.00 | 72 | 1013.7 |
| 20260504015957 | 7 | 326 | 0.0 | 0.0 | 0.00 | 0.00 | 0.00 | 71 | 1013.7 |
| 20260504015453 | 8 | 326 | 0.0 | 0.0 | 0.00 | 0.00 | 0.00 | 68 | 1013.7 |
| 20260504014952 | 8 | 326 | 0.0 | 0.0 | 0.00 | 0.00 | 0.00 | 67 | 1013.7 |
| 20260504014454 | 8 | 326 | 0.0 | 0.0 | 0.00 | 0.00 | 0.00 | 65 | 1013.7 |
| 20260504013952 | 8 | 271 | 0.0 | 0.0 | 0.00 | 0.00 | 0.00 | 64 | 1013.6 |
| 20260504013459 | 8 | 271 | 0.0 | 0.0 | 0.00 | 0.00 | 0.00 | 66 | 1013.6 |
| 20260504012951 | 8 | 271 | 0.0 | 0.0 | 0.00 | 0.00 | 0.00 | 63 | 1013.5 |
| 20260504012450 | 8 | 271 | 0.0 | 0.0 | 0.00 | 0.00 | 0.00 | 62 | 1013.4 |
| 20260504004933 | 11 | 271 | 0.0 | 0.0 | 0.00 | 0.00 | 0.00 | 55 | 1013.4 |
| 20260504004435 | 11 | 271 | 0.0 | 0.0 | 0.00 | 0.00 | 0.00 | 53 | 1013.4 |
| 20260504003933 | 11 | 269 | 0.0 | 0.0 | 0.00 | 0.00 | 0.00 | 51 | 1013.3 |
| 20260504003432 | 12 | 269 | 0.0 | 0.0 | 0.00 | 0.00 | 0.00 | 49 | 1013.3 |
| 20260504001929 | 12 | 269 | 0.0 | 0.0 | 0.00 | 0.00 | 0.00 | 45 | 1013.1 |
| 20260504001431 | 12 | 269 | 0.0 | 1.6 | 0.00 | 0.00 | 0.00 | 44 | 1013.2 |
| 20260504000930 | 13 | 264 | 0.0 | 4.8 | 0.00 | 0.00 | 0.00 | 44 | 1013.3 |
| 20260504000431 | 13 | 299 | 0.0 | 4.8 | 0.00 | 0.00 | 0.00 | 44 | 1013.2 |
| 20260503235429 | 13 | 250 | 0.0 | 3.2 | 0.00 | 0.00 | 0.00 | 43 | 1013.2 |
| 20260503234931 | 13 | 265 | 0.0 | 3.2 | 0.00 | 0.00 | 0.00 | 44 | 1013.2 |
| 20260503234429 | 13 | 250 | 0.0 | 11.3 | 0.00 | 0.00 | 0.00 | 44 | 1013.3 |
| 20260503233930 | 13 | 259 | 0.0 | 11.3 | 0.00 | 0.00 | 0.00 | 42 | 1013.2 |
| 20260503233430 | 13 | 254 | 0.0 | 6.4 | 0.00 | 0.00 | 0.00 | 42 | 1013.3 |
| 20260503232930 | 13 | 254 | 0.0 | 4.8 | 0.00 | 0.00 | 0.00 | 42 | 1013.3 |
| 20260503232429 | 13 | 271 | 0.0 | 11.3 | 0.00 | 0.00 | 0.00 | 42 | 1013.3 |
| 20260503231930 | 13 | 240 | 0.0 | 11.3 | 0.00 | 0.00 | 0.00 | 41 | 1013.4 |
| 20260503231429 | 13 | 293 | 1.6 | 9.7 | 0.00 | 0.00 | 0.00 | 41 | 1013.4 |
| 20260503230930 | 13 | 292 | 1.6 | 9.7 | 0.00 | 0.00 | 0.00 | 40 | 1013.3 |
| 20260503225429 | 14 | 234 | 0.0 | 4.8 | 0.00 | 0.00 | 0.00 | 40 | 1013.3 |
| 20260503224430 | 14 | 152 | 1.6 | 8.0 | 0.00 | 0.00 | 0.00 | 40 | 1013.5 |
| 20260503223930 | 14 | 228 | 0.0 | 9.7 | 0.00 | 0.00 | 0.00 | 41 | 1013.5 |
| 20260503223429 | 14 | 293 | 3.2 | 9.7 | 0.00 | 0.00 | 0.00 | 39 | 1013.4 |
| 20260503222929 | 14 | 257 | 3.2 | 9.7 | 0.00 | 0.00 | 0.00 | 40 | 1013.5 |
| 20260503221929 | 14 | 231 | 0.0 | 9.7 | 0.00 | 0.00 | 0.00 | 43 | 1013.5 |
| 20260503221429 | 14 | 238 | 3.2 | 9.7 | 0.00 | 0.00 | 0.00 | 40 | 1013.5 |
| 20260503220931 | 14 | 224 | 0.0 | 9.7 | 0.00 | 0.00 | 0.00 | 42 | 1013.5 |
| 20260503220429 | 14 | 172 | 0.0 | 11.3 | 0.00 | 0.00 | 0.00 | 40 | 1013.6 |
| 20260503215930 | 14 | 240 | 3.2 | 11.3 | 0.00 | 0.00 | 0.00 | 39 | 1013.7 |
| 20260503215430 | 15 | 300 | 0.0 | 4.8 | 0.00 | 0.00 | 0.00 | 40 | 1013.5 |
| 20260503214426 | 15 | 265 | 0.0 | 9.7 | 0.00 | 0.00 | 0.00 | 42 | 1013.4 |
| 20260503213928 | 14 | 245 | 0.0 | 9.7 | 0.00 | 0.00 | 0.00 | 42 | 1013.5 |
| 20260503212423 | 14 | 169 | 0.0 | 8.0 | 0.00 | 0.00 | 0.00 | 43 | 1013.4 |
| 20260503211923 | 14 | 300 | 3.2 | 8.0 | 0.00 | 0.00 | 0.00 | 41 | 1013.4 |
| 20260503211419 | 14 | 212 | 1.6 | 6.4 | 0.00 | 0.00 | 0.00 | 41 | 1013.5 |
| 20260503210920 | 14 | 228 | 1.6 | 6.4 | 0.00 | 0.00 | 0.00 | 41 | 1013.5 |
| 20260503210418 | 14 | 202 | 1.6 | 20.9 | 0.00 | 0.00 | 0.00 | 41 | 1013.5 |
| 20260503205917 | 14 | 238 | 6.4 | 20.9 | 0.00 | 0.00 | 0.00 | 40 | 1013.5 |
| 20260503205419 | 14 | 226 | 0.0 | 9.7 | 0.00 | 0.00 | 0.00 | 43 | 1013.6 |
| 20260503204917 | 14 | 231 | 0.0 | 14.5 | 0.00 | 0.00 | 0.00 | 42 | 1013.7 |
| 20260503204416 | 14 | 209 | 3.2 | 14.5 | 0.00 | 0.00 | 0.00 | 41 | 1013.8 |
| 20260503203917 | 14 | 275 | 1.6 | 6.4 | 0.00 | 0.00 | 0.00 | 41 | 1013.8 |
| 20260503203417 | 14 | 278 | 1.6 | 14.5 | 0.00 | 0.00 | 0.00 | 43 | 1013.9 |
| 20260503202919 | 14 | 275 | 4.8 | 14.5 | 0.00 | 0.00 | 0.00 | 39 | 1014.0 |
| 20260503202416 | 14 | 275 | 6.4 | 9.7 | 0.00 | 0.00 | 0.00 | 40 | 1014.0 |
| 20260503201917 | 15 | 285 | 1.6 | 14.5 | 0.00 | 0.00 | 0.00 | 42 | 1013.9 |
| 20260503201417 | 14 | 197 | 4.8 | 14.5 | 0.00 | 0.00 | 0.00 | 40 | 1014.0 |
| 20260503200417 | 15 | 282 | 6.4 | 11.3 | 0.00 | 0.00 | 0.00 | 38 | 1014.0 |
| 20260503195417 | 15 | 274 | 0.0 | 6.4 | 0.00 | 0.00 | 0.00 | 42 | 1014.3 |
| 20260503194917 | 15 | 269 | 1.6 | 6.4 | 0.00 | 0.00 | 0.00 | 40 | 1014.3 |
| 20260503194418 | 14 | 295 | 0.0 | 16.1 | 0.00 | 0.00 | 0.00 | 45 | 1014.3 |
| 20260503192916 | 14 | 244 | 0.0 | 11.3 | 0.00 | 0.00 | 0.00 | 42 | 1014.5 |
| 20260503191418 | 14 | 219 | 1.6 | 11.3 | 0.00 | 0.00 | 0.00 | 43 | 1014.7 |
| 20260503190917 | 14 | 320 | 3.2 | 17.7 | 0.00 | 0.00 | 0.00 | 40 | 1014.9 |
| 20260503185917 | 14 | 281 | 9.7 | 17.7 | 0.00 | 0.00 | 0.00 | 41 | 1015.1 |
| 20260503185416 | 13 | 268 | 4.8 | 14.5 | 0.00 | 0.00 | 0.00 | 42 | 1015.2 |
| 20260503184917 | 13 | 293 | 1.6 | 11.3 | 0.00 | 0.00 | 0.00 | 43 | 1015.1 |
| 20260503184417 | 13 | 130 | 3.2 | 9.7 | 0.00 | 0.00 | 0.00 | 41 | 1015.3 |
| 20260503183912 | 14 | 292 | 1.6 | 16.1 | 0.00 | 0.00 | 0.00 | 42 | 1015.4 |
| 20260503183413 | 14 | 262 | 4.8 | 16.1 | 0.00 | 0.00 | 0.00 | 41 | 1015.5 |
| 20260503182410 | 15 | 281 | 0.0 | 8.0 | 0.00 | 0.00 | 0.00 | 41 | 1015.5 |
| 20260503181910 | 15 | 295 | 1.6 | 8.0 | 0.00 | 0.00 | 0.00 | 43 | 1015.6 |
| 20260503180909 | 14 | 269 | 4.8 | 11.3 | 0.00 | 0.00 | 0.00 | 41 | 1015.5 |
| 20260503180409 | 14 | 278 | 3.2 | 16.1 | 0.00 | 0.00 | 0.00 | 41 | 1015.6 |
| 20260503175906 | 14 | 266 | 4.8 | 16.1 | 0.00 | 0.00 | 0.00 | 40 | 1015.8 |
| 20260503175406 | 14 | 276 | 3.2 | 11.3 | 0.00 | 0.00 | 0.00 | 39 | 1015.7 |
| 20260503174907 | 14 | 266 | 1.6 | 11.3 | 0.00 | 0.00 | 0.00 | 42 | 1015.8 |
| 20260503174404 | 14 | 171 | 0.0 | 9.7 | 0.00 | 0.00 | 0.00 | 43 | 1015.9 |
| 20260503173903 | 15 | 237 | 3.2 | 9.7 | 0.00 | 0.00 | 0.00 | 39 | 1015.9 |
| 20260503173405 | 14 | 265 | 1.6 | 8.0 | 0.00 | 0.00 | 0.00 | 42 | 1015.9 |
| 20260503172402 | 14 | 258 | 3.2 | 8.0 | 0.00 | 0.00 | 0.00 | 38 | 1016.0 |
| 20260503171901 | 14 | 254 | 1.6 | 8.0 | 0.00 | 0.00 | 0.00 | 42 | 1016.0 |
| 20260503170901 | 13 | 269 | 1.6 | 11.3 | 0.00 | 0.00 | 0.00 | 40 | 1016.1 |
| 20260503170401 | 13 | 265 | 3.2 | 11.3 | 0.00 | 0.00 | 0.00 | 39 | 1016.3 |
| 20260503150853 | 12 | 250 | 1.6 | 8.0 | 0.00 | 0.00 | 0.00 | 47 | 1017.1 |
| 20260503150350 | 11 | 257 | 0.0 | 8.0 | 0.00 | 0.00 | 0.00 | 51 | 1017.0 |
| 20260503131329 | 7 | 261 | 1.6 | 6.4 | 0.00 | 0.00 | 0.00 | 65 | 1017.5 |
| 20260503130829 | 7 | 276 | 1.6 | 11.3 | 0.00 | 0.00 | 0.00 | 65 | 1017.6 |
| 20260503130329 | 7 | 298 | 3.2 | 11.3 | 0.00 | 0.00 | 0.00 | 66 | 1017.6 |
| 20260503110820 | -1 | 268 | 0.0 | 0.0 | 0.00 | 0.00 | 0.00 | 96 | 1016.9 |
| 20260503110318 | -1 | 268 | 0.0 | 0.0 | 0.00 | 0.00 | 0.00 | 96 | 1016.8 |
| 20260503090316 | 0 | 266 | 0.0 | 0.0 | 0.00 | 0.00 | 0.00 | 95 | 1016.1 |
| 20260503081313 | 0 | 266 | 0.0 | 0.0 | 0.00 | 0.00 | 0.00 | 95 | 1016.0 |
| 20260503080807 | 0 | 266 | 0.0 | 0.0 | 0.00 | 0.00 | 0.00 | 95 | 1016.0 |
| 20260503072807 | 1 | 266 | 0.0 | 0.0 | 0.00 | 0.00 | 0.00 | 96 | 1015.9 |
| 20260503072305 | 1 | 268 | 0.0 | 0.0 | 0.00 | 0.00 | 0.00 | 96 | 1015.9 |
| 20260503071803 | 0 | 268 | 0.0 | 0.0 | 0.00 | 0.00 | 0.00 | 95 | 1015.8 |
| 20260503071300 | 0 | 268 | 0.0 | 0.0 | 0.00 | 0.00 | 0.00 | 95 | 1015.8 |
| 20260503070801 | 0 | 266 | 0.0 | 0.0 | 0.00 | 0.00 | 0.00 | 95 | 1015.8 |
| 20260503070301 | 0 | 268 | 0.0 | 0.0 | 0.00 | 0.00 | 0.00 | 95 | 1015.8 |
| 20260503060254 | 0 | 268 | 0.0 | 0.0 | 0.00 | 0.00 | 0.00 | 95 | 1015.8 |
| 20260503054752 | 0 | 266 | 0.0 | 0.0 | 0.00 | 0.00 | 0.00 | 95 | 1015.9 |
| 20260503054253 | 0 | 266 | 0.0 | 0.0 | 0.00 | 0.00 | 0.00 | 94 | 1015.9 |
| 20260503053249 | 0 | 266 | 0.0 | 0.0 | 0.00 | 0.00 | 0.00 | 94 | 1015.9 |
| 20260503052747 | 0 | 268 | 0.0 | 0.0 | 0.00 | 0.00 | 0.00 | 94 | 1015.9 |
| 20260503051747 | 0 | 266 | 0.0 | 0.0 | 0.00 | 0.00 | 0.00 | 93 | 1016.0 |
| 20260503051249 | 0 | 268 | 0.0 | 0.0 | 0.00 | 0.00 | 0.00 | 93 | 1016.0 |
| 20260503050747 | 0 | 266 | 0.0 | 0.0 | 0.00 | 0.00 | 0.00 | 93 | 1016.1 |
| 20260503050246 | 0 | 266 | 0.0 | 0.0 | 0.00 | 0.00 | 0.00 | 93 | 1016.1 |